FW6365 Weather Reports


Display with metric or nautical units.
time (UTC)temp
F
wind
direction
speed
MPH
gust
MPH
rain 1hr
in
rain 24hr
in
rain mn
in
humidity
%
barometer
mb
20260502230526 76 350 4.0 13.0 0.00 0.00 0.00 53 1013.6
20260502230044 76 94 5.0 13.0 0.00 0.00 0.00 54 1013.7
20260502225525 76 329 3.0 12.0 0.00 0.00 0.00 55 1013.8
20260502225025 76 343 2.0 12.0 0.00 0.00 0.00 56 1013.8
20260502224543 75 5 7.0 12.0 0.00 0.00 0.00 55 1013.8
20260502224028 75 322 4.0 11.0 0.00 0.00 0.00 57 1013.9
20260502223529 75 126 5.0 11.0 0.00 0.00 0.00 58 1014.0
20260502223045 75 348 4.0 11.0 0.00 0.00 0.00 55 1014.2
20260502222529 74 90 4.0 13.0 0.00 0.00 0.00 57 1014.2
20260502222026 74 29 5.0 13.0 0.00 0.00 0.00 55 1014.4
20260502221538 75 28 4.0 12.0 0.00 0.00 0.00 56 1014.4
20260502221027 74 350 2.0 17.0 0.00 0.00 0.00 59 1014.4
20260502220525 74 350 7.0 17.0 0.00 0.00 0.00 58 1014.4
20260502220041 74 80 3.0 10.0 0.00 0.00 0.00 56 1014.4
20260502215525 74 55 5.0 13.0 0.00 0.00 0.00 58 1014.6
20260502215026 73 125 3.0 16.0 0.00 0.00 0.00 58 1014.6
20260502214552 72 346 6.0 16.0 0.00 0.00 0.00 58 1014.7
20260502214027 72 36 9.0 16.0 0.00 0.00 0.00 57 1014.7
20260502213526 72 28 7.0 14.0 0.00 0.00 0.00 58 1014.9
20260502213042 72 331 5.0 12.0 0.00 0.00 0.00 59 1015.0
20260502212526 73 23 4.0 12.0 0.00 0.00 0.00 58 1015.1
20260502212027 72 344 5.0 12.0 0.00 0.00 0.00 60 1015.1
20260502211541 72 19 4.0 11.0 0.00 0.00 0.00 59 1015.2
20260502211025 71 67 4.0 11.0 0.00 0.00 0.00 60 1015.2
20260502210526 71 81 4.0 12.0 0.00 0.00 0.00 60 1015.2
20260502210048 71 316 6.0 12.0 0.00 0.00 0.00 61 1015.3
20260502205525 71 348 5.0 13.0 0.00 0.00 0.00 61 1015.3
20260502205025 71 38 4.0 13.0 0.00 0.00 0.00 61 1015.4
20260502204539 70 23 4.0 13.0 0.00 0.00 0.00 64 1015.3
20260502204025 70 100 6.0 13.0 0.00 0.00 0.00 60 1015.3
20260502203525 70 313 5.0 15.0 0.00 0.00 0.00 63 1015.4
20260502203052 70 33 5.0 15.0 0.00 0.00 0.00 62 1015.5
20260502202530 70 54 2.0 13.0 0.00 0.00 0.00 66 1015.5
20260502202025 69 49 6.0 17.0 0.00 0.00 0.00 64 1015.7
20260502201547 69 92 4.0 17.0 0.00 0.00 0.00 63 1015.7
20260502201026 68 5 7.0 16.0 0.00 0.00 0.00 64 1015.7
20260502200526 69 306 7.0 14.0 0.00 0.00 0.00 65 1015.7
20260502200043 68 21 4.0 11.0 0.00 0.00 0.00 67 1015.7
20260502195525 67 13 3.0 14.0 0.00 0.00 0.00 67 1015.8
20260502195025 67 24 4.0 14.0 0.00 0.00 0.00 69 1015.8
20260502194541 66 19 7.0 14.0 0.00 0.00 0.00 67 1015.9
20260502194027 66 47 3.0 14.0 0.00 0.00 0.00 68 1016.0
20260502193526 66 13 3.0 14.0 0.00 0.00 0.00 69 1016.1
20260502193041 65 26 8.0 13.0 0.00 0.00 0.00 69 1016.3
20260502192525 65 64 6.0 13.0 0.00 0.00 0.00 70 1016.3
20260502192025 65 290 6.0 15.0 0.00 0.00 0.00 70 1016.2
20260502191541 65 82 6.0 15.0 0.00 0.00 0.00 70 1016.3
20260502191025 65 346 9.0 16.0 0.00 0.00 0.00 70 1016.2
20260502190525 65 62 5.0 16.0 0.00 0.00 0.00 72 1016.3
20260502190042 65 18 7.0 14.0 0.00 0.00 0.00 70 1016.4
20260502185525 64 102 6.0 13.0 0.00 0.00 0.00 70 1016.5
20260502185025 64 345 3.0 10.0 0.00 0.00 0.00 74 1016.4
20260502184539 64 29 4.0 10.0 0.00 0.00 0.00 74 1016.6
20260502184025 63 96 3.0 13.0 0.00 0.00 0.00 73 1016.6
20260502183526 63 15 5.0 13.0 0.00 0.00 0.00 76 1016.7
20260502183042 62 336 8.0 13.0 0.00 0.00 0.00 73 1016.7
20260502182529 63 19 7.0 13.0 0.00 0.00 0.00 73 1016.7
20260502182025 62 141 6.0 13.0 0.00 0.00 0.00 74 1016.8
20260502181540 62 162 7.0 13.0 0.00 0.00 0.00 74 1016.8
20260502181025 62 321 4.0 13.0 0.00 0.00 0.00 75 1016.9
20260502180525 62 319 2.0 11.0 0.00 0.00 0.00 76 1016.8
20260502164025 55 338 2.0 5.0 0.00 0.00 0.00 88 1017.5
20260502163525 55 307 2.0 4.0 0.00 0.00 0.00 89 1017.4
20260502163042 54 69 1.0 6.0 0.00 0.00 0.00 91 1017.4
20260502162529 53 86 2.0 6.0 0.00 0.00 0.00 92 1017.4
20260502162026 52 291 2.0 6.0 0.00 0.00 0.00 92 1017.4
20260502161539 52 94 0.0 3.0 0.00 0.00 0.00 94 1017.5
20260502161029 52 298 0.0 2.0 0.00 0.00 0.00 94 1017.6
20260502160528 51 68 1.0 3.0 0.00 0.00 0.00 94 1017.6
20260502152024 50 348 2.0 6.0 0.00 0.00 0.00 97 1017.5
20260502151544 50 11 1.0 6.0 0.00 0.00 0.00 97 1017.6
20260502151025 49 60 3.0 6.0 0.00 0.00 0.00 97 1017.6
20260502150525 49 307 1.0 2.0 0.00 0.00 0.00 98 1017.5
20260502130528 43 0 0.0 2.0 0.00 0.00 0.00 97 1017.1
20260502123524 45 0 0.0 2.0 0.00 0.00 0.00 97 1016.9
20260502123043 44 348 1.0 2.0 0.00 0.00 0.00 97 1017.0
20260502122525 44 346 0.0 1.0 0.00 0.00 0.00 97 1017.3
20260502122025 44 285 0.0 1.0 0.00 0.00 0.00 97 1017.3
20260502121540 44 262 0.0 1.0 0.00 0.00 0.00 97 1017.4
20260502121026 44 263 0.0 1.0 0.00 0.00 0.00 97 1017.4
20260502120525 44 0 0.0 1.0 0.00 0.00 0.00 96 1017.4
20260502115525 45 0 0.0 1.0 0.00 0.00 0.00 96 1017.6
20260502115025 45 0 0.0 1.0 0.00 0.00 0.00 96 1017.5
20260502114600 45 0 0.0 1.0 0.00 0.00 0.00 96 1017.4
20260502114023 45 0 0.0 1.0 0.00 0.00 0.00 96 1017.4
20260502113525 45 262 1.0 1.0 0.00 0.00 0.00 97 1017.4
20260502113046 45 0 0.0 0.0 0.00 0.00 0.00 96 1017.5
20260502112525 45 175 0.0 1.0 0.00 0.00 0.00 96 1017.5
20260502112027 45 0 0.0 3.0 0.00 0.00 0.00 96 1017.5
20260502111542 45 175 1.0 3.0 0.00 0.00 0.00 96 1017.6
20260502111025 45 164 0.0 1.0 0.00 0.00 0.00 96 1017.4
20260502110525 45 0 0.0 1.0 0.00 0.00 0.00 96 1017.4
20260502110041 46 21 0.0 1.0 0.00 0.00 0.00 96 1017.3
20260502105525 46 0 0.0 1.0 0.00 0.00 0.00 96 1017.2
20260502105025 46 0 0.0 2.0 0.00 0.00 0.00 96 1017.1
20260502104541 46 0 0.0 2.0 0.00 0.00 0.00 96 1017.3
20260502104024 46 21 1.0 2.0 0.00 0.00 0.00 96 1017.4
20260502103525 46 0 0.0 1.0 0.00 0.00 0.00 96 1017.8
20260502103040 46 21 1.0 1.0 0.00 0.00 0.00 97 1017.8
20260502102526 45 125 0.0 0.0 0.00 0.00 0.00 96 1018.0
20260502102026 45 0 0.0 0.0 0.00 0.00 0.00 96 1018.2
20260502101558 45 0 0.0 1.0 0.00 0.00 0.00 96 1018.2
20260502101025 45 0 0.0 1.0 0.00 0.00 0.00 96 1018.2
20260502100525 45 125 0.0 1.0 0.00 0.00 0.00 96 1018.2
20260502091024 47 115 1.0 3.0 0.00 0.00 0.00 95 1017.4
20260502090524 47 0 0.0 0.0 0.00 0.00 0.00 95 1017.3
20260502071025 48 153 0.0 2.0 0.00 0.00 0.00 92 1017.5
20260502070525 48 120 0.0 2.0 0.00 0.00 0.00 92 1017.4
20260502070035 48 138 1.0 2.0 0.00 0.00 0.00 92 1017.3
20260502065525 48 142 1.0 1.0 0.00 0.00 0.00 91 1017.3
20260502065025 49 124 0.0 3.0 0.00 0.00 0.00 91 1017.2
20260502064611 49 142 0.0 3.0 0.00 0.00 0.00 91 1017.2
20260502064025 49 161 2.0 3.0 0.00 0.00 0.00 91 1017.3
20260502063525 49 170 1.0 4.0 0.00 0.00 0.00 90 1017.3
20260502063052 49 139 1.0 4.0 0.00 0.00 0.00 90 1017.3
20260502062525 49 128 2.0 4.0 0.00 0.00 0.00 90 1017.2
20260502062024 50 157 3.0 4.0 0.00 0.00 0.00 89 1017.3
20260502061543 50 147 1.0 3.0 0.00 0.00 0.00 89 1017.2
20260502061024 50 138 2.0 3.0 0.00 0.00 0.00 90 1017.3
20260502060527 50 181 1.0 2.0 0.00 0.00 0.00 89 1017.2
20260502060046 50 171 1.0 2.0 0.00 0.00 0.00 89 1017.3
20260502055524 51 172 2.0 4.0 0.00 0.00 0.00 88 1017.3
20260502055024 51 161 2.0 4.0 0.00 0.00 0.00 88 1017.3
20260502054538 51 145 2.0 4.0 0.00 0.00 0.00 88 1017.3
20260502054025 51 135 2.0 4.0 0.00 0.00 0.00 88 1017.3
20260502053524 51 150 2.0 4.0 0.00 0.00 0.00 88 1017.3
20260502053049 51 148 3.0 4.0 0.00 0.00 0.00 88 1017.2
20260502052525 51 188 3.0 4.0 0.00 0.00 0.00 88 1017.3
20260502052025 51 173 2.0 5.0 0.00 0.00 0.00 87 1017.2
20260502051542 51 152 2.0 6.0 0.00 0.00 0.00 87 1017.2
20260502051027 51 167 3.0 6.0 0.00 0.00 0.00 87 1017.1
20260502050525 52 175 4.0 6.0 0.00 0.00 0.00 87 1017.1
20260502050045 52 161 3.0 5.0 0.00 0.00 0.00 86 1017.1
20260502045525 52 175 3.0 6.0 0.00 0.00 0.00 86 1017.1
20260502045024 52 153 4.0 7.0 0.00 0.00 0.00 86 1017.0
20260502044541 53 171 5.0 8.0 0.00 0.00 0.00 85 1017.0
20260502044026 53 169 5.0 8.0 0.00 0.00 0.00 84 1016.8
20260502043526 53 160 5.0 8.0 0.00 0.00 0.00 84 1016.7
20260502043105 54 146 5.0 7.0 0.00 0.00 0.00 83 1016.8
20260502042526 54 143 4.0 7.0 0.00 0.00 0.00 82 1016.6
20260502042026 55 142 4.0 8.0 0.00 0.00 0.00 81 1016.5
20260502041546 55 244 4.0 9.0 0.00 0.00 0.00 80 1016.3
20260502041026 55 225 3.0 9.0 0.00 0.00 0.00 80 1016.3
20260502040528 55 235 4.0 8.0 0.00 0.00 0.00 80 1016.3
20260502040045 56 190 4.0 8.0 0.00 0.00 0.00 80 1016.3
20260502035527 56 225 3.0 9.0 0.00 0.00 0.00 79 1016.1
20260502035028 56 210 3.0 10.0 0.00 0.00 0.00 79 1016.1
20260502034541 57 231 5.0 10.0 0.00 0.00 0.00 78 1016.0
20260502034027 57 193 4.0 9.0 0.00 0.00 0.00 78 1015.9
20260502033527 57 219 4.0 8.0 0.00 0.00 0.00 77 1015.8
20260502033040 57 188 3.0 10.0 0.00 0.00 0.00 77 1015.8
20260502032526 58 222 4.0 10.0 0.00 0.00 0.00 76 1015.8
20260502032026 58 162 4.0 9.0 0.00 0.00 0.00 77 1015.8
20260502031540 58 173 3.0 9.0 0.00 0.00 0.00 76 1015.7
20260502031027 59 196 4.0 9.0 0.00 0.00 0.00 75 1015.6
20260502030526 59 179 4.0 10.0 0.00 0.00 0.00 74 1015.4
20260502030047 60 198 4.0 10.0 0.00 0.00 0.00 73 1015.4
20260502025526 60 157 3.0 7.0 0.00 0.00 0.00 72 1015.3
20260502025030 61 218 3.0 9.0 0.00 0.00 0.00 71 1015.3
20260502024541 61 211 4.0 9.0 0.00 0.00 0.00 70 1015.1
20260502024026 61 169 4.0 10.0 0.00 0.00 0.00 69 1015.1
20260502023526 61 194 4.0 10.0 0.00 0.00 0.00 68 1015.0
20260502023044 62 189 5.0 10.0 0.00 0.00 0.00 68 1015.0
20260502022527 62 194 4.0 10.0 0.00 0.00 0.00 67 1015.0
20260502022030 62 201 5.0 10.0 0.00 0.00 0.00 68 1014.9
20260502021541 62 231 3.0 15.0 0.00 0.00 0.00 67 1015.0
20260502021027 63 221 4.0 15.0 0.00 0.00 0.00 67 1014.9
20260502020530 63 180 7.0 11.0 0.00 0.00 0.00 66 1015.0
20260502020040 64 220 4.0 12.0 0.00 0.00 0.00 66 1015.0
20260502015527 64 244 6.0 12.0 0.00 0.00 0.00 64 1014.9
20260502015027 65 186 3.0 11.0 0.00 0.00 0.00 66 1014.9
20260502014542 65 211 4.0 11.0 0.00 0.00 0.00 65 1015.0
20260502014028 65 224 4.0 8.0 0.00 0.00 0.00 65 1014.9
20260502013526 66 229 4.0 8.0 0.00 0.00 0.00 65 1014.9
20260502013049 66 254 4.0 9.0 0.00 0.00 0.00 65 1015.0
20260502012526 66 232 3.0 13.0 0.00 0.00 0.00 66 1015.1
20260502012030 66 263 4.0 13.0 0.00 0.00 0.00 64 1015.0
20260502011539 67 200 4.0 11.0 0.00 0.00 0.00 64 1015.0
20260502011026 67 217 5.0 13.0 0.00 0.00 0.00 64 1015.0
20260502010527 67 254 8.0 15.0 0.00 0.00 0.00 62 1015.0
20260502010043 67 192 7.0 15.0 0.00 0.00 0.00 63 1014.9
20260502005527 68 256 8.0 15.0 0.00 0.00 0.00 63 1014.9
20260502005028 68 221 7.0 14.0 0.00 0.00 0.00 62 1014.9
20260502004544 69 257 6.0 14.0 0.00 0.00 0.00 63 1015.0
20260502004026 69 229 6.0 13.0 0.00 0.00 0.00 62 1014.9
20260502003526 70 257 6.0 14.0 0.00 0.00 0.00 61 1014.8
20260502003040 70 251 6.0 14.0 0.00 0.00 0.00 62 1014.7
20260502002526 71 252 8.0 14.0 0.00 0.00 0.00 62 1014.7
20260502002026 71 267 7.0 12.0 0.00 0.00 0.00 62 1014.6
20260502001540 72 283 8.0 12.0 0.00 0.00 0.00 61 1014.6
20260502001027 72 211 5.0 12.0 0.00 0.00 0.00 63 1014.6
20260502000528 72 246 6.0 12.0 0.00 0.00 0.00 62 1014.7
20260502000039 72 265 4.0 12.0 0.00 0.00 0.00 61 1014.6
20260501235526 72 278 5.0 13.0 0.00 0.00 0.00 59 1014.6
20260501235028 71 269 6.0 13.0 0.00 0.00 0.00 61 1014.5
20260501234543 71 269 5.0 12.0 0.00 0.00 0.00 58 1014.6
20260501234028 71 255 6.0 11.0 0.00 0.00 0.00 59 1014.7
20260501233528 71 254 5.0 13.0 0.00 0.00 0.00 62 1014.7
20260501233102 71 240 5.0 13.0 0.00 0.00 0.00 61 1014.8
20260501232526 72 261 7.0 14.0 0.00 0.00 0.00 59 1014.7
20260501232028 73 250 5.0 14.0 0.00 0.00 0.00 58 1014.8
20260501231551 73 244 6.0 13.0 0.00 0.00 0.00 58 1014.9
20260501231026 74 244 6.0 13.0 0.00 0.00 0.00 57 1014.9